Terminal Aerodrome Forecast
Issued by NWS

Home | Current Version | Previous Version | Text Only | Print | Product List | Glossary On
Versions: 1 2 3 4 5 6 7 8 9 10 11 12 13 14 15 16 17 18 19 20
747
FTAK31 PAJN 142338
TAFAKT
TAF
PAKT 142338Z 1500/1524 VRB04KT P6SM -SHRA FEW007 OVC015
      TEMPO 1500/1502 12010KT
     FM150200 31015KT 4SM -SHRA BR BKN015 OVC025
     FM150900 13010KT 6SM -SHRA BR SCT015 BKN030 OVC040
     FM151500 13010KT P6SM VCSH SCT015 BKN035 OVC040
      AMD LTD TO CLD VIS AND WIND 1506/1515=

USA.gov is the U.S. government's official web portal to all federal, state and local government web resources and services.